This demonstration page uses our WeatherBlox Daily Observations layout. Learn more.

Left ArrowRight Arrow

39.92423, -83.80882

Hourly Observations for February 3, 2016

Temp ( °F °C ) Dew Point ( °F °C ) Humidity (%) Winds ( mph kmh ) Pressure ( in mb ) Visibility ( mi km ) Precip ( " mm )
12:39 am 00:39 Mostly Cloudy with Light Rain 55 13 55 13 100 100 SE 16 26 29.62 1003 3 4 0.08 2.03
12:45 am 00:45 Mostly Cloudy with Light Rain 55 13 55 13 100 100 SE 21 33 29.62 1003 3 5 0.09 2.29
12:56 am 00:56 Mostly Cloudy with Light Rain 56 13.3 55 12.7 96 96 SE 16 26 29.60 1002 4 6 0.11 2.79
1:11 am 01:11 Mostly Cloudy with Rain 55 13 55 13 100 100 SW 14 22 29.65 1004 3 4 0.04 1.02
1:15 am 01:15 Cloudy with Light Rain 55 13 55 13 100 100 W 28 44 29.68 1005 2 2 0.16 4.06
1:17 am 01:17 Cloudy with Heavy Rain 55 13 55 13 100 100 SW 13 20 29.65 1004 1 2 0.21 5.33
1:27 am 01:27 Cloudy with Rain 55 13 55 13 100 100 S 8 13 29.65 1004 2 2 0.27 6.86
1:30 am 01:30 Mostly Cloudy with Rain 55 13 55 13 100 100 S 6 9 29.65 1004 2 3 0.29 7.37
1:46 am 01:46 Mostly Cloudy with Rain 55 13 55 13 100 100 SSE 9 15 29.62 1003 2 3 0.39 9.91
1:56 am 01:56 Cloudy with Light Rain 56 13.3 56 13.3 100 100 SE 12 19 29.61 1003 2 3 0.44 11.18
1:59 am 01:59 Mostly Cloudy with Light Rain 55 13 55 13 100 100 SE 10 17 29.62 1003 3 4 0.01 0.25
2:07 am 02:07 Cloudy with Light Rain 55 13 55 13 100 100 SE 10 17 29.59 1002 4 6 0.03 0.76
2:25 am 02:25 Mostly Cloudy with Rain 55 13 55 13 100 100 SSE 10 17 29.62 1003 3 5 0.09 2.29
2:56 am 02:56 Mostly Cloudy with Light Rain 57 13.8 57 13.8 100 100 SSE 12 19 29.61 1003 7 11 0.15 3.81
3:56 am 03:56 Clear 57 13.8 55 12.7 93 93 SSE 16 26 29.59 1002 10 16 0.03 0.76
4:56 am 04:56 Partly Cloudy 57 13.8 54 12.2 90 90 S 12 19 29.58 1002 10 16 N/A
5:04 am 05:04 Mostly Cloudy 57 14 55 13 94 94 SSE 10 17 29.56 1001 10 16 N/A
5:56 am 05:56 Cloudy 58 14.4 56 13.3 93 93 S 13 20 29.61 1003 10 16 N/A
6:56 am 06:56 Cloudy 58 14.4 56 13.3 93 93 S 16 26 29.63 1003 10 16 N/A
7:04 am 07:04 Cloudy 57 14 55 13 94 94 SSW 14 22 29.62 1003 10 16 N/A
7:21 am 07:21 Partly Cloudy 57 14 55 13 94 94 SSW 14 22 29.62 1003 10 16 N/A
7:56 am 07:56 Mostly Sunny 57 13.8 50 10 78 78 SSW 14 22 29.66 1004 10 16 N/A
8:56 am 08:56 Sunny 55 12.7 46 7.7 72 72 SW 14 22 29.67 1005 10 16 N/A
9:56 am 09:56 Mostly Sunny 56 13.3 49 9.4 77 77 SSW 12 19 29.68 1005 10 16 N/A
10:56 am 10:56 Sunny 56 13.3 41 5 57 57 SW 26 43 29.69 1005 10 16 N/A
11:56 am 11:56 Sunny 57 13.8 38 3.3 49 49 SW 23 37 29.69 1006 10 16 N/A
12:56 pm 12:56 Sunny 57 13.8 36 2.2 46 46 SW 24 39 29.69 1005 10 16 N/A
1:56 pm 13:56 Mostly Sunny 57 13.8 38 3.3 49 49 WSW 21 33 29.70 1006 10 16 N/A
2:56 pm 14:56 Mostly Sunny 56 13.3 40 4.4 55 55 W 21 33 29.72 1007 10 16 N/A
3:56 pm 15:56 Sunny 53 11.6 36 2.2 53 53 W 24 39 29.77 1008 10 16 N/A
4:56 pm 16:56 Sunny 49 9.4 34 1.1 56 56 W 22 35 29.81 1010 10 16 N/A
5:56 pm 17:56 Partly Cloudy 44 6.6 33 0.5 65 65 W 21 33 29.86 1011 10 16 N/A
6:56 pm 18:56 Cloudy 41 5 33 0.5 73 73 W 16 26 29.92 1013 10 16 N/A
7:56 pm 19:56 Cloudy 39 3.8 32 undefined 77 77 W 17 28 29.95 1014 10 16 N/A
8:56 pm 20:56 Cloudy 39 3.8 31 -0.5 74 74 W 17 28 29.98 1015 10 16 N/A
9:56 pm 21:56 Cloudy 38 3.3 32 undefined 79 79 W 15 24 29.99 1016 10 16 N/A
10:23 pm 22:23 Cloudy with Light Rain 37 3 34 1 87 87 W 17 28 30.03 1017 8 13 N/A
10:56 pm 22:56 Cloudy 36 2.2 33 0.5 89 89 W 16 26 30.02 1017 10 16 N/A
11:24 pm 23:24 Cloudy 36 2 30 -1 81 81 W 17 28 30.09 1019 10 16 N/A
11:56 pm 23:56 Cloudy 36 2.2 31 -0.5 83 83 W 13 20 30.04 1017 10 16 N/A

Powered by AerisWeather